Hourly Weather Folkern

Today, 6 December, Sunday

Time Temperature Precipitation Wind Pressure Humidity
00:00 +3°C° 0 mm 4 mps 752 mmHg 83%
01:00 +3°C° 0 mm 4 mps 752 mmHg 83%
02:00 +3°C° 0 mm 4 mps 752 mmHg 84%
03:00 +3°C° 0 mm 4 mps 752 mmHg 84%
04:00 +3°C° 0 mm 4 mps 752 mmHg 84%
05:00 +2°C° 0 mm 5 mps 752 mmHg 84%
06:00 +2°C° 0 mm 5 mps 752 mmHg 85%
07:00 +2°C° 0 mm 5 mps 752 mmHg 85%
08:00 +1°C° 0 mm 5 mps 753 mmHg 85%
09:00 +1°C° 0 mm 5 mps 753 mmHg 85%
10:00 +3°C° 0 mm 4 mps 753 mmHg 83%
11:00 +3°C° 0 mm 4 mps 753 mmHg 81%
12:00 +4°C° 0 mm 3 mps 753 mmHg 80%
13:00 +4°C° 0 mm 3 mps 753 mmHg 80%
14:00 +3°C° 0 mm 3 mps 752 mmHg 80%
15:00 +3°C° 0 mm 3 mps 752 mmHg 80%
16:00 +3°C° 0 mm 3 mps 752 mmHg 81%
17:00 +3°C° 0 mm 3 mps 752 mmHg 82%
18:00 +2°C° 0 mm 3 mps 752 mmHg 83%
19:00 +3°C° 0 mm 2 mps 752 mmHg 84%
20:00 +3°C° 0 mm 2 mps 752 mmHg 84%
21:00 +3°C° 0 mm 2 mps 752 mmHg 84%
22:00 +3°C° 0 mm 2 mps 751 mmHg 84%
23:00 +4°C° 0 mm 1 mps 751 mmHg 84%

Tomorrow, 7 December, Monday

Time Temperature Precipitation Wind Pressure Humidity
00:00 +4°C° 0 mm 1 mps 751 mmHg 84%
01:00 +4°C° 0 mm 1 mps 751 mmHg 85%
02:00 +4°C° 0 mm 1 mps 751 mmHg 86%
03:00 +4°C° 0 mm 1 mps 751 mmHg 86%
04:00 +4°C° 0 mm 1 mps 751 mmHg 87%
05:00 +4°C° 0 mm 1 mps 751 mmHg 87%
06:00 +4°C° 0 mm 1 mps 751 mmHg 88%
07:00 +3°C° 0 mm 2 mps 751 mmHg 88%
08:00 +3°C° 0 mm 2 mps 751 mmHg 89%
09:00 +3°C° 0 mm 2 mps 751 mmHg 89%
10:00 +3°C° 0 mm 2 mps 751 mmHg 88%
11:00 +3°C° 0 mm 3 mps 751 mmHg 87%
12:00 +3°C° 0 mm 4 mps 751 mmHg 85%
13:00 +3°C° 0 mm 4 mps 751 mmHg 85%
14:00 +3°C° 0 mm 4 mps 751 mmHg 84%
15:00 +3°C° 0 mm 4 mps 751 mmHg 83%
16:00 +3°C° 0 mm 4 mps 752 mmHg 83%
17:00 +3°C° 0 mm 4 mps 752 mmHg 83%
18:00 +3°C° 0 mm 4 mps 752 mmHg 82%
19:00 +2°C° 0 mm 5 mps 752 mmHg 82%
20:00 +3°C° 0 mm 6 mps 752 mmHg 82%
21:00 +3°C° 0 mm 7 mps 752 mmHg 82%
22:00 +4°C° 0 mm 8 mps 752 mmHg 81%
23:00 +5°C° 0 mm 10 mps 752 mmHg 79%

Day after tomorrow, 8 December, Tuesday

Time Temperature Precipitation Wind Pressure Humidity
00:00 +4°C° 0 mm 11 mps 751 mmHg 78%
01:00 +4°C° 0.1 mm 11 mps 751 mmHg 77%
02:00 +4°C° 0.1 mm 12 mps 751 mmHg 77%
03:00 +4°C° 0.1 mm 13 mps 751 mmHg 76%
04:00 +4°C° 0 mm 14 mps 751 mmHg 78%
05:00 +4°C° 0 mm 15 mps 751 mmHg 80%
06:00 +4°C° 0 mm 16 mps 750 mmHg 81%
07:00 +2°C° 0.2 mm 16 mps 750 mmHg 85%
08:00 +2°C° 0.2 mm 16 mps 750 mmHg 88%
09:00 +2°C° 0.2 mm 16 mps 750 mmHg 91%
10:00 +4°C° 0.3 mm 16 mps 750 mmHg 89%
11:00 +4°C° 0.3 mm 16 mps 750 mmHg 87%
12:00 +5°C° 0.3 mm 16 mps 750 mmHg 86%
13:00 +5°C° 0.1 mm 16 mps 750 mmHg 84%
14:00 +5°C° 0.1 mm 15 mps 750 mmHg 83%
15:00 +5°C° 0.1 mm 14 mps 750 mmHg 81%
16:00 +5°C° 0.2 mm 14 mps 750 mmHg 81%
17:00 +5°C° 0.2 mm 14 mps 750 mmHg 81%
18:00 +5°C° 0.2 mm 14 mps 750 mmHg 81%
19:00 +5°C° 0.1 mm 13 mps 750 mmHg 82%
20:00 +5°C° 0.1 mm 13 mps 750 mmHg 82%
21:00 +5°C° 0.1 mm 12 mps 750 mmHg 83%
22:00 +5°C° 0 mm 12 mps 750 mmHg 83%
23:00 +6°C° 0 mm 11 mps 750 mmHg 83%

9 December, Wednesday

Time Temperature Precipitation Wind Pressure Humidity
00:00 +6°C° 0 mm 10 mps 750 mmHg 83%
01:00 +6°C° 0 mm 10 mps 750 mmHg 85%
02:00 +6°C° 0 mm 9 mps 749 mmHg 86%
03:00 +6°C° 0 mm 9 mps 749 mmHg 87%
04:00 +6°C° 0.1 mm 9 mps 749 mmHg 88%
05:00 +6°C° 0.1 mm 9 mps 749 mmHg 89%
06:00 +5°C° 0.1 mm 9 mps 749 mmHg 89%
07:00 +5°C° 0.1 mm 8 mps 749 mmHg 88%
08:00 +5°C° 0.1 mm 8 mps 749 mmHg 87%
09:00 +5°C° 0.1 mm 7 mps 748 mmHg 86%
10:00 +5°C° 0 mm 6 mps 748 mmHg 84%
11:00 +6°C° 0 mm 5 mps 748 mmHg 82%
12:00 +6°C° 0 mm 4 mps 747 mmHg 79%
13:00 +6°C° 0 mm 5 mps 747 mmHg 77%
14:00 +5°C° 0 mm 6 mps 747 mmHg 75%
15:00 +4°C° 0 mm 6 mps 746 mmHg 74%
16:00 +4°C° 0.1 mm 7 mps 746 mmHg 76%
17:00 +4°C° 0.1 mm 8 mps 746 mmHg 78%
18:00 +3°C° 0.1 mm 9 mps 746 mmHg 80%
19:00 +3°C° 0 mm 9 mps 745 mmHg 81%
20:00 +3°C° 0 mm 9 mps 745 mmHg 82%
21:00 +3°C° 0 mm 9 mps 745 mmHg 83%
22:00 +4°C° 0 mm 8 mps 745 mmHg 81%
23:00 +4°C° 0 mm 8 mps 744 mmHg 79%

10 December, Thursday

Time Temperature Precipitation Wind Pressure Humidity
00:00 +4°C° 0 mm 8 mps 744 mmHg 78%
01:00 +4°C° 0.2 mm 8 mps 743 mmHg 80%
02:00 +4°C° 0.2 mm 8 mps 743 mmHg 82%
03:00 +2°C° 0.2 mm 9 mps 742 mmHg 84%
04:00 +3°C° 0.3 mm 9 mps 742 mmHg 85%
05:00 +3°C° 0.3 mm 9 mps 741 mmHg 87%
06:00 +3°C° 0.3 mm 9 mps 741 mmHg 89%
07:00 +5°C° 0.2 mm 10 mps 740 mmHg 88%
08:00 +4°C° 0.2 mm 12 mps 739 mmHg 88%
09:00 +4°C° 0.2 mm 14 mps 738 mmHg 88%
10:00 +4°C° 0.6 mm 15 mps 737 mmHg 87%
11:00 +4°C° 0.6 mm 16 mps 736 mmHg 86%
12:00 +3°C° 0.6 mm 17 mps 735 mmHg 86%
13:00 +5°C° 0.9 mm 16 mps 734 mmHg 88%
14:00 +6°C° 0.9 mm 15 mps 733 mmHg 90%
15:00 +8°C° 0.9 mm 14 mps 732 mmHg 93%
16:00 +8°C° 0.1 mm 15 mps 731 mmHg 88%
17:00 +6°C° 0.1 mm 16 mps 731 mmHg 84%
18:00 +6°C° 0.1 mm 17 mps 730 mmHg 80%
19:00 +6°C° 0.1 mm 17 mps 731 mmHg 78%
20:00 +6°C° 0.1 mm 17 mps 731 mmHg 77%
21:00 +6°C° 0.1 mm 17 mps 731 mmHg 76%
22:00 +6°C° 0.1 mm 16 mps 731 mmHg 75%
23:00 +6°C° 0.1 mm 15 mps 731 mmHg 74%

11 December, Friday

Time Temperature Precipitation Wind Pressure Humidity
00:00 +6°C° 0.1 mm 14 mps 731 mmHg 73%
01:00 +7°C° 0.3 mm 13 mps 730 mmHg 78%
02:00 +6°C° 0.3 mm 11 mps 730 mmHg 83%
03:00 +6°C° 0.3 mm 10 mps 729 mmHg 89%
04:00 +6°C° 0.8 mm 9 mps 728 mmHg 89%
05:00 +6°C° 0.8 mm 8 mps 728 mmHg 90%
06:00 +6°C° 0.8 mm 8 mps 727 mmHg 91%
07:00 +6°C° 2.3 mm 8 mps 727 mmHg 91%
08:00 +5°C° 2.3 mm 8 mps 727 mmHg 92%
09:00 +5°C° 2.3 mm 8 mps 727 mmHg 92%
10:00 +6°C° 1.1 mm 8 mps 727 mmHg 92%
11:00 +6°C° 1.1 mm 8 mps 727 mmHg 92%
12:00 +6°C° 1.1 mm 8 mps 728 mmHg 92%
13:00 +6°C° 0.3 mm 9 mps 728 mmHg 88%
14:00 +6°C° 0.3 mm 10 mps 729 mmHg 85%
15:00 +7°C° 0.3 mm 10 mps 729 mmHg 81%
16:00 +6°C° 0.1 mm 10 mps 729 mmHg 79%
17:00 +6°C° 0.1 mm 10 mps 730 mmHg 78%
18:00 +6°C° 0.1 mm 9 mps 730 mmHg 77%
19:00 +6°C° 0.1 mm 9 mps 730 mmHg 78%
20:00 +6°C° 0.1 mm 8 mps 730 mmHg 79%
21:00 +6°C° 0.1 mm 8 mps 731 mmHg 79%
22:00 +5°C° 0.1 mm 7 mps 731 mmHg 81%
23:00 +5°C° 0.1 mm 7 mps 731 mmHg 82%
Show more

We Need Your Consent

Meteoprog and our Service Providers may store and access personal data such as cookies, device identifiers or other similar technologies on your device and process such data to personalise content and ads, as well as provide social media features and to analyse the traffic.

  • Store and/or access information on your device

    Cookies, device identifiers or other information can be stored or accessed on your device for the purposes indicated above.

  • Personalised ads and content, ad and content measurement, audience insights, and products development

    Ads and content can be personalised based on a profile. More data can be added to better personalise ads and content. Ad and content performance can be measured. Insights about the audience who saw the ads and content can be derived. Such data can be used to develop or improve user’s experience, systems and software.

By clicking ‘I Agree’ you will allow the use of indicated cookies, device identifiers, web beacons or other similar technologies. Your settings can be changed in the browser on your device.

For certain purposes, legitimate interests may be relied on, rather than consent. You can read more about this in our Privacy and Cookie Policy.